星链-1580 (STARLINK-1580 )

导读

STARLINK-1580是美国太空探索技术公司(SpaceX)星链星座的成员,于2020年8月7日发射入轨,属于星链项目的部署卫星。它承担着为全球提供高速互联网覆盖的任务,依托低轨运行的优势,大幅降低通信延迟,推动全球互联互通,是SpaceX构建大规模卫星互联网星座进程中的重要组成部分。

Basic Information
目录编号:
46041
目录名称:
STARLINK-1580
国际标识:
2020-055Q
轨道中心:
EARTH
卫星名称:
星链-1580
卫星全名:
星链-1580 (STARLINK-1580 )
卫星状态:
已陨落 最后检测时间 2025-04-01
发射日期:
2020-08-07 UTC
国别 :
美国 (US)
星等 :
--
Orbit Information
数据来源 国际轨道数据
星历时间: 2025-04-01T13:15:14+0800
轨道信息已过期437天
半长轴: 6593.934km
偏心率: 0.0014842
轨道倾角: 53.029°
近地点辐角 344.610°
升交点赤经 183.704°
平近点角 103.083°
近地点: 206.012km
远地点: 225.586km
周期: 88.813分钟
每日圈数: 16.213843
Detailed Information
固有亮度:
5
最大亮度:
2.5
卫星平台:
Starlink V1.0
覆盖范围:
全球
运营商:
太空探索技术公司
运营商所在国:
美国
制造商(研发单位):
太空探索技术公司
制造商所在国:
美国
使用方式:
暂无
Satellite Introduction
星链(Starlink)计划是由太空探索技术公司(SpaceX)提出的一个巨型低轨卫星互联网星座项目,计划在2019年至2024年间在太空搭建由约1.2万颗卫星组成的“星链”网络,其中1584颗将部署在地球上空550千米处的近地轨道,并从2020年开始工作。该卫星仍在工作。